CW3224 Weather Reports


time (UTC)temp
F
wind
direction
speed
knots
gust
knots
rain 1hr
in
rain 24hr
in
rain mn
in
humidity
%
barometer
mb
20260506051238 63 189 5.2 13.0 0.00 0.00 0.00 68 1008.8
20260506050238 63 169 4.3 10.4 0.00 0.00 0.00 68 1008.8
20260506050151 63 201 3.5 8.7 0.00 0.00 0.00 69 1008.8
20260506044234 63 170 4.3 12.2 0.00 0.00 0.00 68 1009.0
20260506043232 63 222 3.5 10.4 0.00 0.00 0.00 68 1009.0
20260506042233 63 212 3.5 7.8 0.00 0.00 0.00 68 1009.0
20260506041233 63 197 4.3 12.2 0.00 0.00 0.00 67 1009.0
20260506040231 63 200 3.5 10.4 0.00 0.00 0.00 67 1009.0
20260506035229 63 243 4.3 11.3 0.00 0.00 0.00 66 1008.9
20260506034229 63 196 3.5 9.6 0.00 0.00 0.00 66 1009.0
20260506033713 64 207 3.5 11.3 0.00 0.00 0.00 65 1009.0
20260506032231 64 200 4.3 10.4 0.00 0.00 0.00 65 1008.9
20260506031225 64 239 4.3 8.7 0.00 0.00 0.00 64 1008.9
20260506030225 65 216 4.3 10.4 0.00 0.00 0.00 64 1008.9
20260506030139 65 240 5.2 13.0 0.00 0.00 0.00 63 1009.1
20260506025200 65 170 3.5 10.4 0.00 0.00 0.00 63 1009.0
20260506023708 65 238 3.5 7.8 0.00 0.00 0.00 62 1009.0
20260506022221 66 191 3.5 8.7 0.00 0.00 0.00 62 1009.0
20260506021221 67 192 3.5 7.0 0.00 0.00 0.00 61 1009.0
20260506020222 67 182 4.3 10.4 0.00 0.00 0.00 60 1009.0
20260506015222 67 211 3.5 7.8 0.00 0.00 0.00 60 1008.7
20260506014219 68 195 3.5 8.7 0.00 0.00 0.00 58 1008.7
20260506013221 68 215 4.3 10.4 0.00 0.00 0.00 58 1008.7
20260506012219 69 194 3.5 12.2 0.00 0.00 0.00 57 1008.7
20260506011656 69 220 3.5 9.6 0.00 0.00 0.00 56 1008.1
20260506010219 69 216 5.2 11.3 0.00 0.00 0.00 56 1008.1
20260506005707 69 301 5.2 12.2 0.00 0.00 0.00 55 1008.0
20260506004220 70 301 5.2 11.3 0.00 0.00 0.00 55 1007.6
20260506003211 70 174 5.2 12.2 0.00 0.00 0.00 54 1007.6
20260506002209 70 217 3.5 6.1 0.00 0.00 0.00 54 1007.1
20260506001209 71 158 4.3 9.6 0.00 0.00 0.00 53 1007.1
20260506000211 71 202 4.3 11.3 0.00 0.00 0.00 52 1007.1
20260505235209 72 301 4.3 10.4 0.00 0.00 0.00 52 1006.8
20260505234211 72 206 5.2 16.5 0.00 0.00 0.00 51 1006.5
20260505233204 73 212 5.2 10.4 0.00 0.00 0.00 51 1006.5
20260505232204 73 187 4.3 13.9 0.00 0.00 0.00 51 1006.3
20260505231203 74 187 4.3 9.6 0.00 0.00 0.00 50 1006.1
20260505230203 75 223 4.3 11.3 0.00 0.00 0.00 49 1006.1
20260505230121 75 193 5.2 18.2 0.00 0.00 0.00 48 1006.0
20260505224204 76 203 7.8 20.0 0.00 0.00 0.00 46 1005.5
20260505223152 76 224 7.0 13.0 0.00 0.00 0.00 45 1005.5
20260505222153 77 240 6.1 19.1 0.00 0.00 0.00 45 1005.1
20260505221153 78 181 7.0 13.9 0.00 0.00 0.00 44 1004.9
20260505220153 78 216 7.0 18.2 0.00 0.00 0.00 43 1004.9
20260505215153 78 237 6.1 17.4 0.00 0.00 0.00 43 1005.0
20260505214153 79 198 7.8 24.3 0.00 0.00 0.00 41 1005.0
20260505213153 79 208 7.8 19.1 0.00 0.00 0.00 39 1005.0
20260505212151 80 203 7.8 20.9 0.00 0.00 0.00 39 1004.8
20260505211629 80 198 7.0 15.6 0.00 0.00 0.00 37 1004.5
20260505210148 81 193 7.0 17.4 0.00 0.00 0.00 37 1004.5
20260505205144 81 164 6.1 17.4 0.00 0.00 0.00 37 1004.5
20260505204145 81 198 7.8 19.1 0.00 0.00 0.00 36 1004.5
20260505203634 82 222 6.1 20.0 0.00 0.00 0.00 35 1004.5
20260505202146 82 272 4.3 9.6 0.00 0.00 0.00 37 1004.5
20260505201620 82 264 5.2 13.0 0.00 0.00 0.00 36 1004.8
20260505200623 82 214 6.1 14.8 0.00 0.00 0.00 37 1004.8
20260505195141 82 220 6.1 15.6 0.00 0.00 0.00 36 1004.6
20260505194140 82 204 7.0 20.9 0.00 0.00 0.00 37 1004.6
20260505193142 82 191 7.0 14.8 0.00 0.00 0.00 39 1004.6
20260505192140 82 207 6.1 16.5 0.00 0.00 0.00 40 1005.0
20260505191142 82 229 7.0 17.4 0.00 0.00 0.00 41 1005.1
20260505190140 81 216 7.8 16.5 0.00 0.00 0.00 40 1005.1
20260505185139 82 201 7.8 19.1 0.00 0.00 0.00 38 1005.3
20260505184140 82 193 7.0 20.9 0.00 0.00 0.00 40 1005.7
20260505183139 82 247 7.8 17.4 0.00 0.00 0.00 40 1005.7
20260505182136 82 191 7.8 21.7 0.00 0.00 0.00 39 1006.0
20260505181136 81 222 7.0 20.0 0.00 0.00 0.00 42 1006.3
20260505180137 82 194 5.2 13.0 0.00 0.00 0.00 40 1006.3
20260505175136 82 137 7.0 18.2 0.00 0.00 0.00 42 1006.3
20260505174615 82 137 7.0 18.2 0.00 0.00 0.00 40 1006.5
20260505173612 82 210 6.1 18.2 0.00 0.00 0.00 41 1006.5
20260505172136 82 202 6.1 13.9 0.00 0.00 0.00 40 1006.6
20260505171138 81 229 5.2 14.8 0.00 0.00 0.00 44 1007.0
20260505170134 81 184 5.2 12.2 0.00 0.00 0.00 46 1007.0
20260505165134 80 245 4.3 13.0 0.00 0.00 0.00 45 1007.1
20260505164133 80 146 5.2 13.9 0.00 0.00 0.00 43 1007.5
20260505163608 80 209 4.3 10.4 0.00 0.00 0.00 43 1007.5
20260505162130 80 214 3.5 11.3 0.00 0.00 0.00 46 1007.6
20260505161132 79 231 5.2 12.2 0.00 0.00 0.00 46 1007.7
20260505160130 80 230 4.3 10.4 0.00 0.00 0.00 45 1007.7
20260505153131 76 222 4.3 11.3 0.00 0.00 0.00 53 1008.6
20260505152128 75 195 3.5 10.4 0.00 0.00 0.00 51 1008.7
20260505151129 74 131 3.5 10.4 0.00 0.00 0.00 53 1008.6
20260505150128 74 175 3.5 9.6 0.00 0.00 0.00 53 1008.6
20260505140126 67 254 3.5 13.9 0.00 0.00 0.00 63 1009.2
20260505124118 62 175 3.5 7.0 0.00 0.00 0.00 68 1009.2
20260505123118 61 301 3.5 8.7 0.00 0.00 0.00 69 1009.2
20260505122118 61 202 3.5 7.8 0.00 0.00 0.00 70 1009.2
20260505121118 60 217 3.5 8.7 0.00 0.00 0.00 72 1009.2
20260505120119 59 219 3.5 7.0 0.00 0.00 0.00 72 1009.2
20260505115119 58 162 4.3 9.6 0.00 0.00 0.00 73 1009.2
20260505114116 57 180 2.6 10.4 0.00 0.00 0.00 74 1009.1
20260505113601 56 190 2.6 7.0 0.00 0.00 0.00 75 1009.1
20260505112116 55 202 3.5 9.6 0.00 0.00 0.00 76 1009.1
20260505112043 54 200 3.5 8.7 0.00 0.00 0.00 78 1008.9
20260505110115 53 196 2.6 7.0 0.00 0.00 0.00 79 1008.9
20260505102117 52 184 2.6 4.3 0.00 0.00 0.00 79 1009.0
20260505101112 52 208 1.7 5.2 0.00 0.00 0.00 79 1008.9
20260505100111 52 183 2.6 5.2 0.00 0.00 0.00 78 1008.9
20260505095109 52 211 2.6 6.1 0.00 0.00 0.00 77 1008.9
20260505094107 52 198 2.6 4.3 0.00 0.00 0.00 77 1009.0
20260505093106 52 184 2.6 6.1 0.00 0.00 0.00 76 1009.0
20260505092106 52 209 2.6 6.1 0.00 0.00 0.00 76 1008.9
20260505091106 52 206 2.6 6.1 0.00 0.00 0.00 76 1008.8
20260505090105 52 206 2.6 7.0 0.00 0.00 0.00 76 1008.8
20260505085053 51 160 2.6 7.0 0.00 0.00 0.00 76 1008.9
20260505084053 51 188 2.6 4.3 0.00 0.00 0.00 76 1009.2
20260505083054 51 198 2.6 4.3 0.00 0.00 0.00 76 1009.2
20260505082531 51 211 1.7 3.5 0.00 0.00 0.00 75 1009.2
20260505081536 52 213 1.7 4.3 0.00 0.00 0.00 75 1009.2
20260505080053 52 193 1.7 3.5 0.00 0.00 0.00 74 1009.2
20260505075053 52 203 1.7 3.5 0.00 0.00 0.00 74 1009.2
20260505074053 52 204 2.6 4.3 0.00 0.00 0.00 74 1009.2
20260505073055 52 177 2.6 4.3 0.00 0.00 0.00 74 1009.2
20260505072055 51 153 2.6 4.3 0.00 0.00 0.00 75 1009.3
20260505071052 51 186 2.6 4.3 0.00 0.00 0.00 75 1009.5
20260505070051 51 184 1.7 4.3 0.00 0.00 0.00 76 1009.5
20260505065052 51 198 1.7 4.3 0.00 0.00 0.00 75 1009.4
20260505064050 51 177 1.7 2.6 0.00 0.00 0.00 74 1009.6
20260505063532 52 188 1.7 2.6 0.00 0.00 0.00 73 1009.6
20260505062050 52 187 1.7 4.3 0.00 0.00 0.00 72 1009.7
20260505061047 53 247 1.7 4.3 0.00 0.00 0.00 71 1009.7
20260505060049 53 183 0.9 2.6 0.00 0.00 0.00 70 1009.7
20260505055048 53 183 0.9 2.6 0.00 0.00 0.00 69 1009.7
20260505054048 53 181 0.0 1.7 0.00 0.00 0.00 69 1009.7
20260505053048 54 181 0.0 0.9 0.00 0.00 0.00 68 1009.7